Weather History for KNCA - April, 2013

Change the Weather History Date:

Tuesday, April 30, 2013

  Actual Average Record
Temperature  
Mean Temperature 66 °F -  
Max Temperature 75 °F 74 °F 87 °F (2007)
Min Temperature 60 °F 52 °F 42 °F (1997)
Cooling Degree Days 2    
Growing Degree Days 16 (Base 50)    
Moisture  
Dew Point 62 °F    
Average Humidity 91    
Maximum Humidity 100    
Minimum Humidity 66    
Precipitation  
Precipitation 0.53 in - - ()
Sea Level Pressure  
Sea Level Pressure 30.05 in    
Wind  
Wind Speed 4 mph (North)    
Max Wind Speed 10 mph    
Max Gust Speed -    
Visibility 5 miles    
Events Fog , Rain    
Averages and records for this station are not official NWS values.
T = Trace of Precipitation, MM = Missing Value Source: NWS Daily Summary

Daily Weather History Graph

Daily Weather History Graph

Search for Another Location

Airport or City:

Trip Planner

Search our weather history database for the weather conditions in past years. The results will help you decide how hot, cold, wet, or windy it might be!

Date:

Astronomy

Apr. 30, 2013 Rise Set
Actual Time 6:20 AM EDT 7:54 PM EDT
Civil Twilight 5:53 AM EDT 8:21 PM EDT
Nautical Twilight 5:21 AM EDT 8:53 PM EDT
Astronomical Twilight 4:47 AM EDT 9:27 PM EDT
Moon 12:12 AM EDT (4/30) 10:49 AM EDT (4/30)
Length of Visible Light 14h 27m
Length of Day
13h 33m
Waning Gibbous, 70% of the Moon is Illuminated
Apr 30
Waning Gibbous
May 2
Last Quarter
May 9
New
May 18
First Quarter
May 25
Full

Hourly Weather History & Observations

Time (EDT) Temp. Dew Point Humidity Pressure Visibility Wind Dir Wind Speed Gust Speed Precip Events Conditions
12:36 AM 62.6 °F 62.6 °F 100% 30.02 in 10.0 mi SSW 3.5 mph - N/A   Overcast
12:56 AM 64.0 °F 62.1 °F 93% 30.03 in 10.0 mi SW 3.5 mph - N/A   Overcast
1:27 AM 62.6 °F 60.8 °F 94% 30.02 in 10.0 mi SSE 3.5 mph - N/A   Scattered Clouds
2:15 AM 60.8 °F 60.8 °F 100% 30.01 in 1.0 mi Calm Calm - N/A   Clear
2:25 AM 60.8 °F 60.8 °F 100% 30.00 in 2.0 mi Calm Calm - N/A   Clear
2:34 AM 60.8 °F 60.8 °F 100% 30.00 in 4.0 mi Calm Calm - N/A   Clear
2:56 AM 60.1 °F 60.1 °F 100% 30.01 in 2.5 mi NW 3.5 mph - N/A   Clear
3:01 AM 60.8 °F 59.0 °F 94% 30.00 in 1.8 mi NNW 3.5 mph - N/A   Partly Cloudy
3:06 AM 60.8 °F 59.0 °F 94% 30.00 in 0.8 mi NW 5.8 mph - N/A   Mist
3:13 AM 60.8 °F 60.8 °F 100% 30.00 in 0.5 mi NW 4.6 mph - N/A Fog Fog
3:25 AM 60.8 °F 60.8 °F 100% 30.00 in 0.2 mi NNW 6.9 mph - N/A Fog Fog
3:46 AM 62.6 °F 60.8 °F 94% 30.01 in 0.5 mi Calm Calm - N/A Fog Fog
3:56 AM 62.1 °F 61.0 °F 96% 30.02 in 0.5 mi Calm Calm - N/A Fog Fog
4:11 AM 62.6 °F 62.6 °F 100% 30.01 in 0.2 mi Calm Calm - N/A Fog Fog
4:28 AM 60.8 °F 60.8 °F 100% 30.02 in 0.5 mi NNW 3.5 mph - N/A Fog Fog
4:44 AM 60.8 °F 60.8 °F 100% 30.02 in 0.2 mi North 6.9 mph - N/A Fog Fog
4:56 AM 61.0 °F 61.0 °F 100% 30.03 in 0.2 mi NNW 3.5 mph - N/A Fog Fog
5:12 AM 62.6 °F 60.8 °F 94% 30.02 in 0.5 mi North 4.6 mph - N/A Fog Fog
5:27 AM 62.6 °F 60.8 °F 94% 30.03 in 1.0 mi North 4.6 mph - N/A   Mist
5:37 AM 62.6 °F 62.6 °F 100% 30.04 in 1.5 mi North 4.6 mph - N/A   Overcast
5:46 AM 62.6 °F 62.6 °F 100% 30.04 in 3.0 mi North 4.6 mph - N/A   Overcast
5:56 AM 62.1 °F 62.1 °F 100% 30.05 in 5.0 mi North 4.6 mph - N/A   Overcast
6:03 AM 62.6 °F 62.6 °F 100% 30.04 in 5.0 mi North 4.6 mph - N/A   Overcast
6:16 AM 62.6 °F 62.6 °F 100% 30.04 in 6.0 mi North 4.6 mph - N/A   Overcast
6:56 AM 62.1 °F 62.1 °F 100% 30.06 in 4.0 mi North 6.9 mph - N/A   Overcast
7:56 AM 63.0 °F 62.1 °F 97% 30.08 in 4.0 mi North 6.9 mph - N/A   Overcast
8:03 AM 64.4 °F 62.6 °F 94% 30.07 in 5.0 mi North 5.8 mph - N/A   Mostly Cloudy
8:14 AM 64.4 °F 62.6 °F 94% 30.07 in 5.0 mi North 4.6 mph - N/A   Mostly Cloudy
8:56 AM 64.9 °F 62.1 °F 90% 30.09 in 7.0 mi North 4.6 mph - N/A   Mostly Cloudy
9:56 AM 68.0 °F 62.1 °F 81% 30.09 in 10.0 mi NNE 10.4 mph - N/A   Mostly Cloudy
10:45 AM 69.8 °F 62.6 °F 78% 30.08 in 10.0 mi NE 10.4 mph - N/A   Mostly Cloudy
11:08 AM 69.8 °F 62.6 °F 78% 30.08 in 10.0 mi ENE 9.2 mph - N/A   Mostly Cloudy
11:56 AM 72.0 °F 62.1 °F 71% 30.09 in 10.0 mi ENE 10.4 mph - N/A   Mostly Cloudy
12:13 PM 71.6 °F 60.8 °F 69% 30.08 in 10.0 mi ENE 9.2 mph - N/A   Mostly Cloudy
12:22 PM 71.6 °F 60.8 °F 69% 30.07 in 10.0 mi East 10.4 mph - N/A   Scattered Clouds
12:56 PM 73.0 °F 61.0 °F 66% 30.07 in 10.0 mi ENE 8.1 mph - N/A   Mostly Cloudy
2:56 PM 71.1 °F 61.0 °F 70% 30.06 in 10.0 mi SE 8.1 mph - N/A   Overcast
3:56 PM 66.2 °F 64.4 °F 94% 30.06 in 3.0 mi South 8.1 mph - 0.22 in Rain Heavy Rain
4:08 PM 66.2 °F 64.4 °F 94% 30.05 in 4.0 mi South 6.9 mph - 0.31 in Rain Rain
4:56 PM 70.0 °F 64.9 °F 84% 30.06 in 8.0 mi South 5.8 mph - 0.31 in   Overcast
5:03 PM 69.8 °F 64.4 °F 83% 30.05 in 10.0 mi South 5.8 mph - N/A   Overcast
5:56 PM 68.0 °F 61.0 °F 78% 30.06 in 10.0 mi Calm Calm - N/A   Overcast
6:56 PM 66.9 °F 64.9 °F 93% 30.08 in 10.0 mi Calm Calm - N/A   Overcast
7:56 PM 66.9 °F 64.9 °F 93% 30.09 in 8.0 mi WNW 3.5 mph - N/A   Overcast
8:56 PM 66.9 °F 59.0 °F 76% 30.11 in 10.0 mi North 9.2 mph - N/A   Mostly Cloudy
9:56 PM 64.9 °F 57.9 °F 78% 30.13 in 10.0 mi North 9.2 mph - N/A   Mostly Cloudy
10:56 PM 64.0 °F 57.9 °F 80% 30.14 in 10.0 mi North 5.8 mph - N/A   Mostly Cloudy